Terminal Aerodrome Forecast
Issued by NWS Green Bay, WI

Home | Current Version | Previous Version | Graphics & Text | Print | Product List | Glossary On
Versions: 1 2 3 4 5 6 7 8 9 10 11 12 13 14 15 16 17 18 19 20 21 22 23 24 25 26 27 28 29 30 31 32 33 34 35 36 37 38 39 40 41 42 43
000
FTUS43 KGRB 262348 AAB
TAFGRB
TAF AMD
KGRB 262348Z 2700/2724 15012G18KT P6SM SCT015 SCT040
      TEMPO 2701/2703 21015G30KT 2SM SHRA BR BKN015 BKN040
     FM270300 21010G17KT P6SM SCT025 BKN050 WS015/24040KT
     FM271000 26014G22KT P6SM VCSH SCT015 BKN035
      TEMPO 2710/2714 5SM -SHRA BR BKN015
     FM271500 28011G18KT P6SM SCT020 BKN035
     FM271900 23009KT P6SM BKN035=

USA.gov is the U.S. government's official web portal to all federal, state and local government web resources and services.